Regional Weather Roundup
Issued by NWS

Home | Current Version | Previous Version | Graphics & Text | Print | Product List | Glossary Off
Versions: 1 2 3 4 5 6 7 8 9 10 11 12 13 14 15 16 17 18 19 20 21 22 23 24 25 26 27 28 29 30 31 32 33 34 35 36 37 38 39 40 41 42 43 44 45 46 47 48 49 50

000
ASUS43 KTOP 270008
RWRKS

WEATHER ROUNDUP FOR KANSAS
NATIONAL WEATHER SERVICE GOODLAND KS
700 PM CDT WED APR 26 2017

NOTE:  "FAIR" INDICATES FEW OR NO CLOUDS BELOW 12,000 FEET WITH NO
SIGNIFICANT WEATHER AND/OR OBSTRUCTIONS TO VISIBILITY.

KSZ001>006-013>018-027>032-041>047-270100-
NORTHWEST KANSAS

CITY           SKY/WX    TMP DP  RH WIND       PRES   REMARKS
GOODLAND       SUNNY     57  28  33 N10       29.69S
6HR MIN TEMP:  49; 6HR MAX TEMP:  59;

HAYS           SUNNY     55  34  45 N14       29.69F
HILL CITY      SUNNY     57  32  38 N8        29.69F
6HR MIN TEMP:  50; 6HR MAX TEMP:  58;

RUSSELL        SUNNY     52  33  48 N16       29.68S
6HR MIN TEMP:  48; 6HR MAX TEMP:  54;

$$

KSZ061>065-074>080-084>089-270100-
SOUTHWEST KANSAS

CITY           SKY/WX    TMP DP  RH WIND       PRES   REMARKS
DODGE CITY     SUNNY     57  31  37 N12       29.70S
6HR MIN TEMP:  51; 6HR MAX TEMP:  59;

ELKHART          N/A     59  32  36 N10         N/A
GARDEN CITY    SUNNY     58  29  33 N13       29.70F
6HR MIN TEMP:  51; 6HR MAX TEMP:  59;

GREAT BEND     SUNNY     54  36  50 NW13      29.69S
LIBERAL        SUNNY     60  32  34 N9        29.72S
PRATT          SUNNY     53  33  46 N13       29.69S
6HR MIN TEMP:  46; 6HR MAX TEMP:  55;

$$

KSZ066>073-081>083-090>101-270100-
SOUTHEAST KANSAS

CITY           SKY/WX    TMP DP  RH WIND       PRES   REMARKS
CHANUTE        CLOUDY    49  40  71 NW9       29.63R
6HR MIN TEMP:  45; 6HR MAX TEMP:  50; 6HR PCP:  0.02;

COFFEYVILLE    CLOUDY    50  42  74 NW6       29.65R
6HR MIN TEMP:  46; 6HR MAX TEMP:  50; 6HR PCP: TRACE;

HUTCHINSON     CLOUDY    53  36  52 N15       29.67S
6HR MIN TEMP:  50; 6HR MAX TEMP:  57;

MEDICINE LODGE   N/A     58  34  40 NW10      29.68S
NEWTON         CLOUDY    51  37  58 NW17G23   29.67S
PARSONS        CLOUDY    49  43  80 W5        29.65R
6HR MIN TEMP:  46; 6HR MAX TEMP:  49; 6HR PCP:  0.01;

WICHITA INTL   PTSUNNY   53  37  54 N13       29.67S
6HR MIN TEMP:  48; 6HR MAX TEMP:  58; 6HR PCP: TRACE;

WICHITA JABRA  PTSUNNY   51  36  56 N15       29.67R
6HR MIN TEMP:  48; 6HR MAX TEMP:  55;

WICHITA MCCONL MOSUNNY   54  35  48 N14       29.66S
WINFIELD       CLOUDY    53  38  56 NW17      29.68R
6HR MIN TEMP:  48; 6HR MAX TEMP:  55;

$$

KSZ007>012-019>026-033>040-048>060-102>105-270100-
NORTHEAST KANSAS

CITY           SKY/WX    TMP DP  RH WIND       PRES   REMARKS
CONCORDIA      CLOUDY    49  36  61 N15       29.67S
6HR MIN TEMP:  47; 6HR MAX TEMP:  50;

EMPORIA        CLOUDY    51  38  60 NW14      29.63R
6HR MIN TEMP:  48; 6HR MAX TEMP:  51;

LAWRENCE       CLOUDY    49  38  65 NW20      29.62R
6HR MIN TEMP:  47; 6HR MAX TEMP:  51; 6HR PCP: TRACE;

MANHATTAN      CLOUDY    50  36  58 N10       29.66R
6HR MIN TEMP:  47; 6HR MAX TEMP:  54;

MARYSVILLE     CLOUDY    45  34  65 N13       29.66S
OLATHE IND     CLOUDY    48  38  68 NW14      29.61R
6HR MIN TEMP:  45; 6HR MAX TEMP:  49; 6HR PCP:  0.01;

OLATHE EXE     CLOUDY    48  39  71 NW10G21   29.59R
6HR MIN TEMP:  45; 6HR MAX TEMP:  48; 6HR PCP: TRACE;

SALINA         CLOUDY    53  37  54 N12       29.68S
6HR MIN TEMP:  51; 6HR MAX TEMP:  55;

TOPEKA BILLARD CLOUDY    49  38  65 NW12      29.63R
6HR MIN TEMP:  49; 6HR MAX TEMP:  53;

TOPEKA FORBES  CLOUDY    49  36  61 NW17      29.63R
6HR MIN TEMP:  49; 6HR MAX TEMP:  53;

$$




USA.gov is the U.S. government's official web portal to all federal, state and local government web resources and services.